Location: Paddlesworth
(51.1000°N, 1.1333°E)
Time: 02:44:56
(UTC+00:00)

SPOT 1/Viking Rocket - Pass Details

Date: 11 May 2021
Orbit: 776 x 795 km, 98.4° (Epoch: 14 June)

Event Time Altitude Azimuth Distance (km) Brightness Sun altitude
Exits shadow 21:23:34 10° 186° (S) 2,354 5.6 -13.5°
Reaches altitude 10° 21:23:34 10° 186° (S) 2,353 5.6 -13.5°
Maximum altitude 21:28:35 48° 261° (W) 1,024 4.3 -14.0°
Drops below altitude 10° 21:33:38 10° 336° (NNW) 2,359 7.4 -14.5°
Sets 21:36:03 0° 342° (NNW) 3,290 8.4 -14.7°
